STARLINK-1012, 44718

Orbit data source: Space-Track

STARLINK-1012, 44718 is a payload satellite owned by SpaceX/Seattle (US) in LEO that was launched on Mon, 11 Nov 2019 UTC via an FALCON 9 launch vehicle from the Air Force Eastern Test Range (AFETR). Payload-class satellites include a variety of spacecraft equipped with specific instruments for various scientific and technological missions. These include communications satellites like Starlink; space stations such as the ISS; scientific satellites like the Hubble; Earth observation satellites from companies like Planet Labs, Umbra, and HawkEye 360; GPS; miniature CubeSats for education and research; and military/defense satellites.

Loading next visibility...
Identifier
44718, 2019-074F
Orbit
LEO
Country
Flag of USUS
Related business
Manufacturer
SpaceX/Seattle
Mission
Partially operational Commercial Communications
Bus & Motor
STARLINK, Unknown motor
Mass
260 kg wet, ~248 kg dry
Launch date (UTC)
2019-11-11 (6 years ago)
Launch vehicle
FALCON 9
Launch site
Air Force Eastern Test Range (AFETR)
Object type
Payload
Rocket body
Debris
Shape & HBR
Box + 1 Pan, 10.1 m
Radar Cross Section
13.562 m², Large (>1 m²)

Expand to show TLE details & history
Last TLE update: 6 hours ago

TLE from 6 hours ago
0 STARLINK-1012
1 44718U 19074F   26127.18165520  .00015282  00000-0  30889-3 0  9990
2 44718  53.1588 264.6911 0000821   9.2431 350.8591 15.46700732357859
Epoch: 2026-05-07T04:21Z
TLE epoch observation values (Epoch: 2026-05-07T04:21:35.009Z)
Latitude
-0.00008°
Longitude
-25.73631°
Altitude
426.74 km
Speed
7.657 km/s
True Right ascension
17h 38m 45s
True Declination
0° 00' 00"
Sunlit
Object was in full shadow at epoch
Visualization orbit readout
Latitude
Unknown
Longitude
Unknown
Altitude
Unknown
Speed
Unknown
Apparent Right ascension
Unknown
Apparent Declination
Unknown
Sunlit
N/A
Visualization observer readout
Local Sidereal Time
17:54:34
Azimuth
Unknown
Elevation
Unknown
Doppler factor
Unknown
Orbital elements
Apogee altitude
427.202 km
Perigee altitude
426.085 km
Semi-major axis
6,804.781 km
Eccentricity
0.00008
Inclination
53.1588°
RAAN
264.6911°
Arg. of periapsis
9.2431°
True anomaly
350.85761°
Mean anomaly
350.8591°
Eccentric anomaly
350.85835°
Mean motion
3.86654 °/min
Orbital period
93.11 mins
BSTAR
0.00030889
Loading maneuver chart data...
Computing Atmospheric mass density...
Loading historical data...
Loading historical data...
Loading historical data...
Loading historical data...
Loading historical data...
Loading historical data...
Loading historical data...

Documentation

Showing up to 5 results
|